Regional Weather Roundup
Issued by NWS Green Bay, WI

Home | Current Version | Previous Version | Graphics & Text | Print | Product List | Glossary Off
Versions: 1 2 3 4 5 6 7 8 9 10 11 12 13 14 15 16 17 18 19 20 21 22 23 24 25 26 27 28 29 30 31 32 33 34 35 36 37 38 39 40 41 42 43 44 45 46 47 48 49 50

000
ASUS43 KGRB 281959
RWRGRB

NORTH-CENTRAL AND NORTHEAST WISCONSIN REGIONAL WEATHER ROUNDUP
NATIONAL WEATHER SERVICE GREEN BAY WI
300 PM CDT MON JUL 28 2014

WIZ005-009-010>012-018-019-282100-
NORTH CENTRAL WISCONSIN

CITY           SKY/WX    TMP DP  RH WIND       PRES   REMARKS
IRONWOOD       NOT AVBL
MANITOWISH WTR NOT AVBL
ARBOR VITAE    NOT AVBL
EAGLE RIVER    NOT AVBL
LAND O LAKES   NOT AVBL
RHINELANDER    CLOUDY    68  49  50 N10G17    30.12S
PHILLIPS       MOSUNNY   70  52  53 N9        30.12F
ANTIGO         NOT AVBL
TOMAHAWK       NOT AVBL
MERRILL        NOT AVBL
$$

WIZ013-073-282100-
NORTHEAST WISCONSIN

CITY           SKY/WX    TMP DP  RH WIND       PRES   REMARKS
IRON MOUNTAIN  CLOUDY    70  47  43 N14G22    30.05S
MARINETTE      PTSUNNY   68  52  56 S6        30.03F
$$

WIZ017-030-035>037-045-282100-
CENTRAL WISCONSIN

CITY           SKY/WX    TMP DP  RH WIND       PRES   REMARKS
MEDFORD        NOT AVBL
WAUSAU         PTSUNNY   73  48  41 N8G17     30.08F
MOSINEE        PTSUNNY   72  48  43 NW14      30.11F
MARSHFIELD     MOSUNNY   75  52  44 NW14G24   30.12S
WISC RAPIDS    CLOUDY    73  50  44 NW14      30.12S
STEVENS POINT  NOT AVBL
WAUPACA        MOSUNNY   77  47  35 N12G18    30.08F
SHAWANO        CLOUDY    75  51  41 N10G16    30.06S
CLINTONVILLE   PTSUNNY   73  46  38 N10G17    30.06S
$$

WIZ038-039-048-051-282100-
FOX VALLEY

CITY           SKY/WX    TMP DP  RH WIND       PRES   REMARKS
NWS GREEN BAY  CLOUDY    72  53  51 NW8       30.06S
APPLETON       PTSUNNY   72  52  49 W8        30.08F
OSHKOSH        CLOUDY    72  53  51 W9        30.07F
FOND DU LAC    PTSUNNY   70  50  49 NW15G22   30.08F
$$

WIZ022-050-052-282100-
EAST CENTRAL WISCONSIN

CITY           SKY/WX    TMP DP  RH WIND       PRES   REMARKS
STURGEON BAY   SUNNY     66  48  52 W6        30.06F
MANITOWOC      NOT AVBL
SHEBOYGAN      MOSUNNY   66  50  56 E5        30.08S
$$

LMZ563-521-522-541>543-282100-
LAKESHORE

STATION/POSITION TIME  TEMP    WIND        PRES    VSBY  WAVE
                       AIR SEA DIR/SP/G                  HT/PER
                 (UTC) (F)     (DEG/KT/KT) (MB)    (MI)  (FT/S)
SHEBOYGAN LKSHOR 1900   56      10/  7/  8 1019.0F
KEWAUNEE LKSHORE 1900   57     180/  3/  4 1019.2F
TWO RIVERS CG    1900   56 68                N/A       6   0
NORTHPORT PIER   1900   64     310/  4/  7 1017.6F
N MID LAKE BUOY  1900   55 53  250/  6/  8 1017.1F         1/ 4
S GREEN BAY BUOY 1900   63 67  180/  8     1018.8F
SISTER BAY LKSHO 1900   73        CALM       N/A
CHAMBERS ISLAND  1900   66     260/  3/  6 1017.6F
MENOMINEE LKSHOR 1900   61     180/ 11/ 13 1018.1F
$$


USA.gov is the U.S. government's official web portal to all federal, state and local government web resources and services.